Weather History for Kaneohe MCBH, HI

Change the Weather History Date:

Saturday, January 5, 2013

  Actual Average Record
Temperature  
Mean Temperature 74 °F -  
Max Temperature 77 °F 76 °F 80 °F (2002)
Min Temperature 71 °F 66 °F 63 °F (2004)
Cooling Degree Days 9    
Growing Degree Days 24 (Base 50)    
Moisture  
Dew Point 66 °F    
Average Humidity 76    
Maximum Humidity 88    
Minimum Humidity 68    
Precipitation  
Precipitation 0.16 in - - ()
Sea Level Pressure  
Sea Level Pressure 30.14 in    
Wind  
Wind Speed 16 mph (East)    
Max Wind Speed 20 mph    
Max Gust Speed 38 mph    
Visibility 8 miles    
Events Rain    
Averages and records for this station are not official NWS values.
T = Trace of Precipitation, MM = Missing Value Source: NWS Daily Summary

Daily Weather History Graph

Daily Weather History Graph

Search for Another Location

Airport:

Trip Planner

Search our weather history database for the weather conditions in past years. The results will help you decide how hot, cold, wet, or windy it might be!

Date:

Astronomy

Jan. 05, 2013 Rise Set
Actual Time 7:10 AM HST 6:03 PM HST
Civil Twilight 6:46 AM HST 6:27 PM HST
Nautical Twilight 6:18 AM HST 6:55 PM HST
Astronomical Twilight 5:51 AM HST 7:22 PM HST
Moon 12:52 AM HST (1/5) 12:40 PM HST (1/5)
Length of Visible Light 11h 41m
Length of Day
10h 53m
Last Quarter, 42% of the Moon is Illuminated
Jan 5
Last Quarter
Jan 11
New
Jan 18
First Quarter
Jan 26
Full
Feb 3
Last Quarter

Hourly Weather History & Observations

Time (HST) Temp. Dew Point Humidity Pressure Visibility Wind Dir Wind Speed Gust Speed Precip Events Conditions
12:09 AM 73.4 °F 64.4 °F 73% 30.15 in 6.2 mi ENE 17.3 mph 27.6 mph 0.00 in Rain Light Rain
12:34 AM 73.4 °F 64.4 °F 73% 30.15 in 6.2 mi East 16.1 mph 28.8 mph 0.00 in   Mostly Cloudy
12:57 AM 73.4 °F 64.9 °F 75% 30.14 in 10.0 mi East 15.0 mph 34.5 mph 0.01 in Rain Light Rain
1:57 AM 73.4 °F 64.9 °F 75% 30.12 in 10.0 mi ENE 13.8 mph 25.3 mph 0.00 in   Overcast
2:09 AM 73.4 °F 64.4 °F 73% 30.14 in - East 13.8 mph 32.2 mph 0.00 in Rain Light Rain
2:16 AM 73.4 °F 64.4 °F 73% 30.14 in 6.2 mi East 17.3 mph 23.0 mph 0.00 in Rain Light Rain
2:57 AM 73.4 °F 64.9 °F 75% 30.12 in 10.0 mi ENE 18.4 mph 29.9 mph 0.01 in Rain Light Rain
3:20 AM 73.4 °F 66.2 °F 78% 30.13 in 6.2 mi East 13.8 mph 28.8 mph 0.00 in   Overcast
3:50 AM 71.6 °F 66.2 °F 83% 30.12 in 10.0 mi East 17.3 mph 38.0 mph 0.00 in Rain Light Rain
3:57 AM 71.6 °F 66.0 °F 82% 30.11 in 10.0 mi ENE 19.6 mph 36.8 mph 0.00 in   Mostly Cloudy
4:57 AM 71.6 °F 64.9 °F 79% 30.11 in 10.0 mi ENE 18.4 mph 31.1 mph 0.00 in Rain Light Rain
5:57 AM 71.6 °F 66.0 °F 82% 30.12 in - East 12.7 mph 27.6 mph 0.00 in Rain Light Rain
6:57 AM 71.6 °F 64.0 °F 77% 30.13 in 7.0 mi East 13.8 mph 26.5 mph 0.01 in   Overcast
7:57 AM 71.6 °F 66.0 °F 82% 30.15 in 10.0 mi East 11.5 mph 24.2 mph 0.01 in   Overcast
8:18 AM 71.6 °F 66.2 °F 83% 30.17 in 6.2 mi East 13.8 mph 28.8 mph 0.01 in   Mostly Cloudy
8:28 AM 71.6 °F 66.2 °F 83% 30.17 in 6.2 mi East 16.1 mph 27.6 mph 0.01 in   Mostly Cloudy
8:57 AM 73.4 °F 69.6 °F 88% 30.16 in 10.0 mi East 13.8 mph 29.9 mph 0.01 in   Overcast
9:57 AM 73.4 °F 66.0 °F 78% 30.16 in 10.0 mi East 13.8 mph 24.2 mph 0.01 in   Mostly Cloudy
10:57 AM 75.2 °F 66.0 °F 73% 30.15 in 10.0 mi ENE 16.1 mph 33.4 mph 0.02 in Rain Rain
11:17 AM 75.2 °F 68.0 °F 78% 30.16 in 6.2 mi ENE 13.8 mph 20.7 mph 0.00 in   Mostly Cloudy
11:57 AM 75.2 °F 68.7 °F 80% 30.14 in 10.0 mi East 15.0 mph 31.1 mph 0.00 in Rain Light Rain
12:57 PM 75.2 °F 66.0 °F 73% 30.14 in 10.0 mi East 16.1 mph 31.1 mph 0.03 in   Mostly Cloudy
1:18 PM 77.0 °F 66.2 °F 69% 30.13 in 6.2 mi East 13.8 mph 27.6 mph 0.00 in Rain Light Rain
1:41 PM 77.0 °F 66.2 °F 69% 30.11 in 6.2 mi ENE 19.6 mph 29.9 mph 0.00 in   Overcast
1:57 PM 77.0 °F 66.0 °F 69% 30.09 in 10.0 mi East 13.8 mph 28.8 mph 0.01 in Rain Light Rain
2:57 PM 77.0 °F 66.0 °F 69% 30.09 in 10.0 mi East 12.7 mph 26.5 mph 0.01 in   Mostly Cloudy
3:04 PM 75.2 °F 64.4 °F 69% 30.10 in 6.2 mi East 15.0 mph 34.5 mph N/A   Overcast
3:57 PM 75.2 °F 64.0 °F 68% 30.09 in 10.0 mi East 15.0 mph 29.9 mph 0.02 in Rain Light Rain
4:57 PM 73.4 °F 66.9 °F 80% 30.09 in 10.0 mi East 13.8 mph 28.8 mph 0.00 in   Overcast
5:07 PM 73.4 °F 64.4 °F 73% 30.12 in 6.2 mi ENE 16.1 mph 27.6 mph N/A   Overcast
5:57 PM 73.8 °F 65.5 °F 75% 30.11 in 10.0 mi East 19.6 mph 29.9 mph 0.00 in   Overcast
6:14 PM 73.4 °F 68.0 °F 83% 30.13 in 6.2 mi East 15.0 mph 26.5 mph N/A   Mostly Cloudy
6:21 PM 73.4 °F 68.0 °F 83% 30.13 in 6.2 mi ENE 17.3 mph 32.2 mph N/A   Mostly Cloudy
6:57 PM 73.4 °F 67.6 °F 82% 30.12 in 10.0 mi East 13.8 mph 27.6 mph N/A   Overcast
7:57 PM 74.1 °F 64.0 °F 71% 30.14 in 10.0 mi ENE 18.4 mph 27.6 mph 0.01 in   Overcast
8:57 PM 73.6 °F 64.9 °F 74% 30.16 in 10.0 mi ENE 17.3 mph 24.2 mph 0.00 in   Overcast
9:06 PM - - N/A% 30.18 in 6.2 mi East 12.7 mph 25.3 mph N/A   Overcast
9:14 PM 73.4 °F 64.4 °F 73% 30.18 in 6.2 mi ENE 18.4 mph 28.8 mph N/A   Mostly Cloudy
9:28 PM 73.4 °F 64.4 °F 73% 30.18 in 6.2 mi ENE 16.1 mph 25.3 mph N/A   Overcast
9:57 PM 73.6 °F 64.0 °F 72% 30.17 in 10.0 mi East 12.7 mph 21.9 mph N/A   Overcast
10:33 PM 71.6 °F 64.4 °F 78% 30.18 in 6.2 mi East 13.8 mph 23.0 mph N/A   Mostly Cloudy
10:57 PM 72.3 °F 64.9 °F 78% 30.16 in 10.0 mi ENE 13.8 mph 24.2 mph 0.00 in   Mostly Cloudy
11:31 PM 71.6 °F 64.4 °F 78% 30.17 in 6.2 mi East 12.7 mph 21.9 mph 0.00 in   Mostly Cloudy
11:57 PM 72.0 °F 64.0 °F 76% 30.15 in 10.0 mi East 9.2 mph 24.2 mph 0.00 in   Mostly Cloudy